AF5AA Weather Reports


Display with metric or nautical units.
time (UTC)temp
F
wind
direction
speed
MPH
gust
MPH
rain 1hr
in
rain 24hr
in
rain mn
in
humidity
%
barometer
mb
20260903141225 77 120 0.0 0.0 0.00 0.27 0.27 98 1015.1
20260903140720 77 118 0.0 0.0 0.00 0.27 0.27 99 1015.3
20260903140215 76 115 0.0 1.0 0.07 0.27 0.27 99 1015.1
20260903135711 76 104 0.0 0.0 0.00 0.26 0.26 99 1015.2
20260903135206 76 99 0.0 0.0 0.00 0.26 0.26 99 1015.2
20260903134705 75 94 0.0 0.0 0.00 0.26 0.26 99 1015.3
20260903134201 76 111 0.0 0.0 0.00 0.26 0.26 99 1015.1
20260903133659 76 96 0.0 0.0 0.00 0.26 0.26 99 1015.2
20260903133155 75 107 0.0 0.0 0.00 0.26 0.26 99 1015.0
20260903132655 75 110 0.0 0.0 0.05 0.26 0.26 99 1015.1
20260903132154 75 125 0.0 1.0 0.05 0.26 0.26 99 1014.9
20260903131650 75 109 0.0 0.0 0.05 0.26 0.26 99 1015.2
20260903131148 75 109 0.0 0.0 0.00 0.25 0.25 99 1015.3
20260903130644 75 109 0.0 0.0 0.00 0.25 0.25 99 1015.2
20260903130138 75 109 0.0 0.0 0.00 0.25 0.25 99 1015.3
20260903125637 74 109 0.0 0.0 0.00 0.25 0.25 99 1015.4
20260903125132 74 109 0.0 0.0 0.00 0.25 0.25 99 1015.5
20260903124631 74 110 0.0 0.0 0.07 0.25 0.25 99 1015.3
20260903124125 74 95 0.0 0.0 0.07 0.25 0.25 99 1015.3
20260903123620 74 97 0.0 0.0 0.00 0.24 0.24 99 1015.0
20260903123119 74 97 0.0 0.0 0.00 0.24 0.24 99 1015.2
20260903122618 74 99 0.0 0.0 0.00 0.24 0.24 99 1015.1
20260903122113 74 99 0.0 0.0 0.00 0.24 0.24 99 1015.1
20260903121607 74 100 0.0 0.0 0.00 0.24 0.24 99 1014.7
20260903121103 74 100 0.0 0.0 0.05 0.24 0.24 99 1014.7
20260903120601 74 100 0.0 0.0 0.05 0.24 0.24 99 1014.6
20260903120056 74 105 0.0 0.0 0.00 0.23 0.23 99 1014.7
20260903115554 74 105 0.0 0.0 0.00 0.23 0.23 99 1014.5
20260903115050 74 101 0.0 0.0 0.00 0.23 0.23 99 1014.5
20260903114550 74 101 0.0 0.0 0.00 0.23 0.23 99 1014.4
20260903114046 74 107 0.0 0.0 0.07 0.23 0.23 99 1014.3
20260903113541 74 107 0.0 0.0 0.07 0.23 0.23 99 1014.2
20260903113037 74 114 0.0 0.0 0.00 0.22 0.22 99 1014.4
20260903112533 74 117 0.0 0.0 0.00 0.22 0.22 99 1014.4
20260903112028 74 117 0.0 0.0 0.00 0.22 0.22 99 1014.6
20260903111526 74 120 0.0 0.0 0.00 0.22 0.22 99 1014.2
20260903111023 74 115 0.0 0.0 0.05 0.22 0.22 99 1014.2
20260903110519 74 115 0.0 0.0 0.05 0.22 0.22 99 1014.0
20260903110019 74 124 0.0 0.0 0.00 0.21 0.21 99 1014.1
20260903105513 74 108 0.0 0.0 0.00 0.21 0.21 99 1013.9
20260903105009 74 104 0.0 0.0 0.00 0.21 0.21 99 1013.7
20260903104508 74 121 0.0 0.0 0.00 0.21 0.21 99 1013.7
20260903104005 74 115 0.0 0.0 0.07 0.21 0.21 99 1013.9
20260903103500 74 113 0.0 0.0 0.07 0.21 0.21 99 1013.9
20260903102955 74 111 0.0 0.0 0.00 0.20 0.20 99 1013.9
20260903102451 74 112 0.0 0.0 0.00 0.20 0.20 99 1013.8
20260903101949 74 122 0.0 0.0 0.00 0.20 0.20 99 1013.9
20260903101444 74 121 0.0 0.0 0.07 0.20 0.20 99 1013.9
20260903100940 74 119 0.0 0.0 0.07 0.20 0.20 99 1013.9
20260903100435 74 118 0.0 0.0 0.00 0.19 0.19 99 1014.0
20260903095932 74 158 2.0 2.0 0.00 0.19 0.19 99 1014.0
20260903095427 74 51 1.0 1.0 0.00 0.19 0.19 99 1013.9
20260903094922 74 112 0.0 0.0 0.05 0.19 0.19 99 1014.1
20260903094421 75 114 0.0 1.0 0.05 0.19 0.19 99 1013.8
20260903093917 74 120 0.0 0.0 0.00 0.18 0.18 99 1013.8
20260903093412 74 113 0.0 0.0 0.00 0.18 0.18 99 1014.0
20260903092908 74 124 0.0 0.0 0.00 0.18 0.18 99 1013.7
20260903092402 74 116 0.0 1.0 0.07 0.18 0.18 99 1013.8
20260903091901 74 107 0.0 0.0 0.07 0.18 0.18 99 1013.8
20260903091400 74 131 0.0 0.0 0.00 0.17 0.17 99 1013.8
20260903090854 74 151 0.0 0.0 0.00 0.17 0.17 99 1013.6
20260903090345 74 125 0.0 0.0 0.00 0.17 0.17 99 1013.7
20260903085842 74 133 1.0 1.0 0.05 0.17 0.17 99 1013.8
20260903085342 74 125 0.0 0.0 0.05 0.17 0.17 99 1013.8
20260903084841 74 128 0.0 0.0 0.00 0.16 0.16 99 1013.8
20260903084340 74 126 0.0 0.0 0.00 0.16 0.16 99 1013.7
20260903083836 74 124 0.0 0.0 0.07 0.16 0.16 99 1013.7
20260903083331 74 118 0.0 0.0 0.07 0.16 0.16 99 1013.8
20260903082830 74 120 0.0 0.0 0.00 0.15 0.15 99 1013.7
20260903082325 74 120 0.0 0.0 0.00 0.15 0.15 99 1013.7
20260903081820 74 117 0.0 0.0 0.05 0.15 0.15 99 1013.5
20260903081316 74 120 0.0 0.0 0.05 0.15 0.15 99 1013.8
20260903080812 74 120 0.0 0.0 0.00 0.14 0.14 99 1014.0
20260903080310 74 118 0.0 0.0 0.00 0.14 0.14 99 1013.8
20260903075809 74 124 0.0 0.0 0.07 0.14 0.14 99 1013.8
20260903075306 74 106 0.0 0.0 0.07 0.14 0.14 99 1013.9
20260903074803 74 122 0.0 0.0 0.00 0.13 0.13 99 1013.7
20260903074258 74 111 0.0 0.0 0.05 0.13 0.13 99 1014.0
20260903073754 74 128 0.0 0.0 0.05 0.13 0.13 99 1013.9
20260903073249 74 138 1.0 1.0 0.00 0.12 0.12 99 1013.9
20260903072745 74 185 1.0 2.0 0.07 0.12 0.12 99 1014.2
20260903072241 74 149 1.0 1.0 0.07 0.12 0.12 99 1014.4
20260903071737 74 113 0.0 1.0 0.00 0.11 0.11 99 1014.2
20260903071232 74 139 0.0 1.0 0.05 0.11 0.11 99 1014.3
20260903070732 74 134 1.0 1.0 0.05 0.11 0.11 99 1014.4
20260903070228 75 133 0.0 0.0 0.00 0.10 0.10 99 1014.4
20260903065723 75 115 0.0 0.0 0.07 0.10 0.10 99 1014.5
20260903065216 75 123 0.0 0.0 0.07 0.10 0.10 99 1014.3
20260903064716 75 128 0.0 0.0 0.00 0.09 0.09 99 1014.1
20260903064211 75 134 1.0 1.0 0.05 0.09 0.09 99 1014.4
20260903063707 76 136 0.0 1.0 0.05 0.09 0.09 99 1014.2
20260903063202 76 96 0.0 0.0 0.07 0.08 0.08 99 1014.2
20260903062658 76 112 0.0 0.0 0.07 0.08 0.08 99 1013.8
20260903062152 76 98 0.0 0.0 0.00 0.07 0.07 99 1013.6
20260903061648 76 80 0.0 0.0 0.07 0.07 0.07 99 1013.7
20260903061147 76 107 0.0 0.0 0.07 0.07 0.07 99 1013.9
20260903060642 76 126 0.0 0.0 0.05 0.06 0.06 99 1013.8
20260903060137 76 125 0.0 0.0 0.05 0.06 0.06 99 1014.1
20260903055635 76 98 0.0 0.0 0.07 0.05 0.05 99 1013.9
20260903055133 76 114 0.0 0.0 0.07 0.05 0.05 99 1013.8
20260903054628 76 113 0.0 0.0 0.00 0.04 0.04 99 1013.8
20260903054124 76 92 0.0 0.0 0.05 0.04 0.04 99 1013.8
20260903053620 76 110 0.0 0.0 0.07 0.03 0.03 99 1013.8
20260903053115 76 102 0.0 0.0 0.07 0.03 0.03 99 1013.7
20260903052611 76 109 0.0 0.0 0.05 0.02 0.02 99 1013.8
20260903052106 76 104 0.0 0.0 0.05 0.02 0.02 99 1013.5
20260903051601 76 93 0.0 0.0 0.07 0.01 0.01 99 1013.6
20260903051056 76 107 0.0 0.0 0.07 0.01 0.01 99 1013.5
20260903050555 76 112 0.0 0.0 0.05 0.00 0.00 99 1013.8
20260903050051 76 89 0.0 0.0 0.05 0.00 0.00 99 1014.0
20260903045550 76 105 0.0 0.0 0.07 0.49 0.49 99 1013.8
20260903045047 76 104 0.0 0.0 0.07 0.49 0.49 99 1013.8
20260903044543 76 98 0.0 0.0 0.05 0.48 0.48 99 1013.6
20260903044038 76 97 0.0 0.0 0.00 0.47 0.47 99 1013.9
20260903043534 76 86 0.0 0.0 0.07 0.47 0.47 99 1014.1
20260903043033 76 98 0.0 0.0 0.14 0.47 0.47 99 1014.0
20260903042528 75 104 0.0 0.0 0.07 0.46 0.46 99 1014.0
20260903042024 75 101 0.0 0.0 0.00 0.45 0.45 99 1014.0
20260903041521 75 99 0.0 0.0 0.00 0.45 0.45 99 1013.7
20260903041015 75 90 0.0 0.0 0.00 0.45 0.45 99 1014.0
20260903040514 75 93 0.0 0.0 0.00 0.45 0.45 99 1013.9
20260903040011 75 94 0.0 0.0 0.00 0.45 0.45 99 1013.9
20260903035506 75 101 0.0 0.0 0.00 0.45 0.45 99 1013.9
20260903035002 75 107 0.0 0.0 0.00 0.45 0.45 99 1013.9
20260903034456 75 61 0.0 1.0 0.00 0.45 0.45 99 1013.3
20260903033956 75 100 0.0 0.0 0.05 0.45 0.45 99 1013.4
20260903033452 75 57 1.0 2.0 0.05 0.45 0.45 99 1013.4
20260903032946 75 94 0.0 1.0 0.00 0.44 0.44 99 1013.4
20260903032442 75 76 1.0 1.0 0.00 0.44 0.44 99 1013.4
20260903031937 75 59 0.0 1.0 0.07 0.44 0.44 99 1013.4
20260903031431 75 79 1.0 1.0 0.07 0.44 0.44 99 1013.4
20260903030926 75 97 0.0 0.0 0.00 0.43 0.43 99 1013.2
20260903030423 75 51 1.0 1.0 0.05 0.43 0.43 99 1013.3
20260903025918 75 96 0.0 1.0 0.05 0.43 0.43 99 1013.2
20260903025414 75 72 0.0 1.0 0.00 0.42 0.42 99 1013.1
20260903024908 75 73 0.0 1.0 0.07 0.42 0.42 99 1012.9
20260903024402 75 71 0.0 1.0 0.05 0.41 0.41 99 1013.1
20260903023857 75 53 1.0 1.0 0.12 0.41 0.41 99 1013.0
20260903023353 75 85 0.0 1.0 0.12 0.40 0.40 99 1013.0
20260903022848 75 75 0.0 0.0 0.05 0.39 0.39 99 1012.6
20260903022347 75 48 2.0 2.0 0.12 0.39 0.39 99 1012.5
20260903021846 75 69 0.0 1.0 0.12 0.38 0.38 99 1012.8
20260903021342 75 65 1.0 1.0 0.12 0.37 0.37 99 1012.9
20260903020841 75 83 0.0 1.0 0.19 0.36 0.36 99 1012.5
20260903020336 75 85 0.0 0.0 0.19 0.35 0.35 99 1012.3
20260903015831 75 89 0.0 1.0 0.24 0.33 0.33 99 1012.2
20260903015327 75 117 1.0 1.0 0.47 0.32 0.32 99 1012.2
20260903014822 75 77 1.0 1.0 0.54 0.28 0.28 99 1012.2
20260903014316 75 100 0.0 0.0 0.54 0.24 0.24 99 1012.5
20260903013811 75 98 0.0 0.0 0.64 0.19 0.19 99 1012.2
20260903013310 75 114 0.0 0.0 0.42 0.14 0.14 99 1012.4
20260903012809 75 111 0.0 0.0 0.14 0.08 0.08 99 1012.2
20260903012306 75 96 0.0 1.0 0.12 0.07 0.07 99 1012.3
20260903011757 75 77 1.0 2.0 0.12 0.06 0.06 99 1012.1
20260903011256 75 85 0.0 0.0 0.07 0.05 0.05 99 1012.2
20260903010752 75 72 1.0 1.0 0.00 0.04 0.04 99 1012.2
20260903010248 75 64 0.0 0.0 0.05 0.04 0.04 98 1012.0
20260903005746 75 94 0.0 0.0 0.12 0.04 0.04 98 1011.9
20260903005241 76 87 0.0 0.0 0.19 0.03 0.03 98 1011.9
20260903004737 76 64 1.0 1.0 0.12 0.02 0.02 97 1012.0
20260903004232 76 86 1.0 1.0 0.00 0.00 0.00 96 1012.0
20260903003728 76 96 0.0 0.0 0.00 0.00 0.00 95 1011.7
20260903003223 77 68 0.0 0.0 0.00 0.00 0.00 95 1012.0
20260903002717 77 71 1.0 2.0 0.00 0.00 0.00 94 1012.2
20260903002212 77 83 0.0 0.0 0.00 0.00 0.00 92 1011.9
20260903001708 78 72 1.0 1.0 0.00 0.00 0.00 91 1011.9
20260903001207 79 63 1.0 1.0 0.00 0.00 0.00 88 1012.0
20260903000702 79 45 1.0 1.0 0.00 0.00 0.00 86 1011.9
20260903000156 79 101 0.0 0.0 0.00 0.00 0.00 85 1011.8
20260902235655 79 89 0.0 0.0 0.00 0.00 0.00 85 1012.1
20260902235150 79 105 0.0 1.0 0.00 0.00 0.00 84 1012.1
20260902234650 79 86 0.0 0.0 0.00 0.00 0.00 84 1012.1
20260902234149 80 72 0.0 0.0 0.00 0.00 0.00 83 1012.0
20260902233644 80 79 0.0 1.0 0.00 0.00 0.00 82 1012.1
20260902233143 80 51 0.0 1.0 0.00 0.00 0.00 82 1012.1
20260902232642 80 78 1.0 2.0 0.00 0.00 0.00 82 1012.3
20260902232142 80 74 1.0 1.0 0.00 0.00 0.00 83 1012.2
20260902231641 80 53 1.0 1.0 0.00 0.00 0.00 83 1012.1
20260902231137 80 38 1.0 1.0 0.00 0.00 0.00 82 1012.4
20260902230632 81 98 1.0 1.0 0.00 0.00 0.00 80 1012.2
20260902230130 81 83 0.0 0.0 0.00 0.00 0.00 78 1012.1
20260902225626 82 49 1.0 2.0 0.00 0.00 0.00 77 1011.8
20260902225125 82 78 1.0 1.0 0.00 0.00 0.00 77 1011.8
20260902224624 82 103 1.0 1.0 0.00 0.00 0.00 77 1011.9
20260902224120 82 84 0.0 2.0 0.00 0.00 0.00 76 1011.9
20260902223616 82 33 2.0 3.0 0.00 0.00 0.00 75 1011.8
20260902223115 82 83 1.0 2.0 0.00 0.00 0.00 75 1011.6
20260902222614 83 92 1.0 1.0 0.00 0.00 0.00 75 1011.8
20260902222113 83 120 3.0 3.0 0.00 0.00 0.00 74 1011.8
20260902221608 84 34 1.0 2.0 0.00 0.00 0.00 72 1011.7
20260902221102 84 96 1.0 1.0 0.00 0.00 0.00 71 1011.7
20260902220558 85 100 1.0 2.0 0.00 0.00 0.00 70 1011.8
20260902220052 85 46 2.0 2.0 0.00 0.00 0.00 70 1011.7
20260902215548 85 23 2.0 2.0 0.00 0.00 0.00 71 1012.0
20260902215044 85 105 0.0 0.0 0.00 0.00 0.00 70 1012.0
20260902214538 85 99 0.0 0.0 0.00 0.00 0.00 70 1011.9
20260902214037 85 110 0.0 1.0 0.00 0.00 0.00 70 1012.2
20260902213533 84 106 0.0 1.0 0.00 0.00 0.00 71 1012.1
20260902213032 84 103 0.0 1.0 0.00 0.00 0.00 72 1011.7
20260902212528 84 121 1.0 2.0 0.00 0.00 0.00 72 1011.9
20260902212024 85 80 0.0 1.0 0.00 0.00 0.00 71 1012.1
20260902211520 85 115 1.0 1.0 0.00 0.00 0.00 70 1012.2
20260902211015 85 86 0.0 0.0 0.00 0.00 0.00 70 1012.1
20260902210515 86 129 0.0 1.0 0.00 0.00 0.00 70 1012.2
20260902210014 85 122 1.0 2.0 0.00 0.00 0.00 70 1012.2
20260902205508 84 105 1.0 1.0 0.00 0.00 0.00 72 1012.3
20260902205004 84 112 0.0 1.0 0.00 0.00 0.00 73 1012.5
20260902204503 84 74 1.0 2.0 0.00 0.00 0.00 72 1012.3
20260902203959 84 104 0.0 0.0 0.00 0.00 0.00 72 1012.5
20260902203454 84 85 0.0 0.0 0.00 0.00 0.00 72 1012.6
20260902202952 84 112 0.0 1.0 0.00 0.00 0.00 72 1012.5
20260902202449 84 97 1.0 2.0 0.00 0.00 0.00 72 1012.5
20260902201946 84 92 1.0 1.0 0.00 0.00 0.00 72 1012.6
20260902201441 85 57 1.0 2.0 0.00 0.00 0.00 70 1012.5
20260902200940 86 94 1.0 1.0 0.00 0.00 0.00 69 1012.6
20260902200435 86 53 0.0 1.0 0.00 0.00 0.00 69 1012.3
20260902195931 86 84 0.0 1.0 0.00 0.00 0.00 68 1012.4
20260902195426 86 93 1.0 2.0 0.00 0.00 0.00 69 1012.6
20260902194925 85 70 0.0 0.0 0.00 0.00 0.00 70 1012.4
20260902194420 85 64 0.0 0.0 0.00 0.00 0.00 71 1012.6
20260902193915 85 107 1.0 2.0 0.00 0.00 0.00 71 1012.5
20260902193411 85 78 1.0 1.0 0.00 0.00 0.00 71 1012.5
20260902192909 85 27 1.0 1.0 0.00 0.00 0.00 71 1012.5
20260902192409 85 98 0.0 1.0 0.00 0.00 0.00 72 1012.8
20260902191902 85 55 1.0 1.0 0.00 0.00 0.00 72 1012.6
20260902191358 85 89 0.0 1.0 0.00 0.00 0.00 72 1013.1
20260902190853 85 71 0.0 1.0 0.00 0.00 0.00 72 1013.1
20260902190353 85 94 0.0 0.0 0.00 0.00 0.00 73 1013.0
20260902185843 84 119 1.0 1.0 0.00 0.00 0.00 73 1012.9
20260902185338 85 43 1.0 1.0 0.00 0.00 0.00 73 1013.0
20260902184834 84 116 1.0 1.0 0.00 0.00 0.00 74 1013.1
20260902184330 84 68 0.0 1.0 0.00 0.00 0.00 75 1013.1
20260902183825 83 100 0.0 1.0 0.00 0.00 0.00 76 1013.2
20260902183321 83 55 0.0 0.0 0.00 0.00 0.00 76 1013.5
20260902182817 83 90 0.0 0.0 0.00 0.00 0.00 76 1013.7
20260902182313 83 135 1.0 2.0 0.00 0.00 0.00 77 1013.8
20260902181809 82 97 0.0 1.0 0.00 0.00 0.00 78 1013.9
20260902181304 82 110 1.0 2.0 0.00 0.00 0.00 78 1013.8
20260902180758 82 85 0.0 0.0 0.00 0.00 0.00 78 1014.0
20260902180254 82 94 1.0 1.0 0.00 0.00 0.00 77 1014.0
20260902175749 82 104 0.0 1.0 0.00 0.00 0.00 77 1014.3
20260902175245 82 77 1.0 2.0 0.00 0.00 0.00 78 1014.2
20260902174740 83 90 1.0 1.0 0.00 0.00 0.00 77 1014.1
20260902174236 83 65 1.0 2.0 0.00 0.00 0.00 76 1014.2
20260902173731 84 98 0.0 1.0 0.00 0.00 0.00 74 1014.3
20260902173225 84 99 0.0 1.0 0.00 0.00 0.00 74 1014.3
20260902172720 85 40 1.0 2.0 0.00 0.00 0.00 74 1014.0
20260902172220 84 89 0.0 0.0 0.00 0.00 0.00 74 1014.1
20260902171715 84 73 0.0 0.0 0.00 0.00 0.00 73 1014.1
20260902171210 84 51 1.0 2.0 0.00 0.00 0.00 75 1014.3
20260902170706 84 108 1.0 1.0 0.00 0.00 0.00 75 1014.3
20260902170202 84 100 1.0 1.0 0.00 0.00 0.00 74 1014.3
20260902165656 84 72 0.0 0.0 0.00 0.00 0.00 73 1014.2
20260902165150 85 61 0.0 1.0 0.00 0.00 0.00 72 1014.4
20260902164646 85 115 1.0 1.0 0.00 0.00 0.00 72 1014.4
20260902164144 85 100 0.0 1.0 0.00 0.00 0.00 72 1014.4
20260902163640 85 34 1.0 1.0 0.00 0.00 0.00 72 1014.3
20260902163139 85 63 0.0 1.0 0.00 0.00 0.00 73 1014.8
20260902162638 84 54 1.0 1.0 0.00 0.00 0.00 75 1014.9
20260902162133 84 95 0.0 0.0 0.00 0.00 0.00 76 1014.7
20260902161628 84 83 0.0 1.0 0.00 0.00 0.00 75 1014.7
20260902161124 84 102 0.0 0.0 0.00 0.00 0.00 77 1014.6
20260902160620 83 84 1.0 2.0 0.00 0.00 0.00 79 1015.0
20260902160114 83 38 0.0 1.0 0.00 0.00 0.00 81 1014.8
20260902155608 82 51 1.0 1.0 0.00 0.00 0.00 83 1014.9
20260902155106 82 99 0.0 0.0 0.00 0.00 0.00 85 1014.7
20260902154602 82 103 0.0 0.0 0.00 0.00 0.00 86 1015.0
20260902154056 81 100 0.0 0.0 0.00 0.00 0.00 87 1014.8
20260902153555 81 85 0.0 1.0 0.00 0.00 0.00 89 1014.8
20260902153051 80 103 0.0 0.0 0.00 0.00 0.00 90 1014.7
20260902152547 80 107 0.0 0.0 0.00 0.00 0.00 89 1014.8
20260902152042 81 110 0.0 0.0 0.00 0.00 0.00 89 1014.6
20260902151538 81 102 0.0 0.0 0.00 0.00 0.00 89 1014.7
20260902151037 81 101 0.0 0.0 0.00 0.00 0.00 88 1014.6
20260902150533 80 102 0.0 1.0 0.00 0.00 0.00 89 1014.3
20260902150028 80 110 0.0 0.0 0.00 0.00 0.00 89 1014.4
20260902145522 80 129 0.0 0.0 0.00 0.00 0.00 89 1014.4
20260902145017 80 100 0.0 0.0 0.00 0.00 0.00 88 1014.9
20260902144514 80 104 0.0 0.0 0.00 0.00 0.00 88 1014.6
20260902144014 80 94 0.0 0.0 0.00 0.00 0.00 88 1014.7
20260902143509 79 96 0.0 1.0 0.00 0.00 0.00 88 1014.5
20260902143004 79 98 0.0 0.0 0.00 0.00 0.00 89 1014.5
20260902142500 79 92 0.0 1.0 0.00 0.00 0.00 90 1014.9
20260902141955 79 102 0.0 0.0 0.00 0.00 0.00 90 1014.7
20260902141450 79 103 0.0 0.0 0.00 0.00 0.00 89 1014.5